San Diego, CA

11:01 PM PDT on June 21, 2018 (GMT -0700)
San Diego International-Lindbergh

Weather History for KSAN - June, 2018

Change the Weather History Date:

Wednesday, June 13, 2018

  Actual Average Record
Temperature  
Mean Temperature 69 °F 66 °F  
Max Temperature 74 °F 70 °F 90 °F (1979)
Min Temperature 64 °F 62 °F 50 °F (1894)
Degree Days  
Heating Degree Days 0 1  
Month to date heating degree days 0 13  
Since 1 June heating degree days 0 13  
Since 1 July heating degree days 679 1220  
Cooling Degree Days 4 2  
Month to date cooling degree days 32 14  
Year to date cooling degree days 84 63  
Since 1 June cooling degree days 32 14  
Growing Degree Days 18 (Base 50)    
Moisture  
Dew Point 60 °F    
Average Humidity 73    
Maximum Humidity 84    
Minimum Humidity 61    
Precipitation  
Precipitation 0.00 in 0.00 in 0.15 in (1884)
Month to date precipitation 0.00 0.04  
Year to date precipitation 3.23 7.00  
Sea Level Pressure  
Sea Level Pressure 29.84 in    
Wind  
Wind Speed 5 mph (WNW)    
Max Wind Speed 12 mph    
Max Gust Speed 18 mph    
Visibility 10 miles    
Events      
T = Trace of Precipitation, MM = Missing Value Source: NWS Daily Summary

Daily Weather History Graph

Daily Weather History Graph

Search for Another Location

Airport or City:

Astronomy

Jun. 13, 2018 Rise Set
Actual Time 5:40 AM PDT 7:57 PM PDT
Civil Twilight 5:11 AM PDT 8:26 PM PDT
Nautical Twilight 4:36 AM PDT 9:01 PM PDT
Astronomical Twilight 3:58 AM PDT 9:39 PM PDT
Moon 5:41 AM PDT (6/13) 8:01 PM PDT (6/13)
Length of Visible Light 15h 14m
Length of Day
14h 17m
Waning Crescent, 0% of the Moon is Illuminated
Jun 13
Waning Crescent
Jun 13
New
Jun 20
First Quarter
Jun 27
Full
Jul 6
Last Quarter

Hourly Weather History & Observations

Time (PDT) Temp. Dew Point Humidity Pressure Visibility Wind Dir Wind Speed Gust Speed Precip Events Conditions
12:51 AM 64.9 °F 59.0 °F 81% 29.83 in 9.0 mi West 4.6 mph - N/A   Overcast
1:51 AM 64.9 °F 59.0 °F 81% 29.83 in 9.0 mi NW 3.5 mph - N/A   Overcast
2:51 AM 64.9 °F 59.0 °F 81% 29.82 in 9.0 mi Calm Calm - N/A   Overcast
3:51 AM 64.9 °F 59.0 °F 81% 29.83 in 9.0 mi SW 5.8 mph - N/A   Overcast
4:51 AM 64.9 °F 59.0 °F 81% 29.83 in 9.0 mi West 4.6 mph - N/A   Overcast
5:51 AM 64.9 °F 59.0 °F 81% 29.83 in 7.0 mi Calm Calm - N/A   Overcast
6:51 AM 64.9 °F 59.0 °F 81% 29.84 in 9.0 mi ENE 4.6 mph - N/A   Overcast
7:51 AM 64.9 °F 59.0 °F 81% 29.85 in 9.0 mi Calm Calm - N/A   Mostly Cloudy
8:16 AM 66.0 °F 59.0 °F 78% 29.85 in 8.0 mi NNW 5.8 mph - N/A   Scattered Clouds
8:51 AM 69.1 °F 59.0 °F 70% 29.85 in 9.0 mi WNW 5.8 mph - N/A   Partly Cloudy
9:51 AM 71.1 °F 60.1 °F 68% 29.85 in 10.0 mi Variable 6.9 mph - N/A   Partly Cloudy
10:51 AM 72.0 °F 60.1 °F 66% 29.86 in 10.0 mi WNW 6.9 mph - N/A   Partly Cloudy
11:51 AM 72.0 °F 60.1 °F 66% 29.87 in 10.0 mi WSW 8.1 mph - N/A   Partly Cloudy
12:51 PM 73.0 °F 60.1 °F 64% 29.88 in 10.0 mi West 6.9 mph - N/A   Partly Cloudy
1:51 PM 71.1 °F 60.1 °F 68% 29.87 in 10.0 mi West 6.9 mph - N/A   Scattered Clouds
2:51 PM 72.0 °F 59.0 °F 64% 29.86 in 10.0 mi NW 6.9 mph - N/A   Scattered Clouds
3:51 PM 73.0 °F 59.0 °F 61% 29.85 in 10.0 mi WNW 6.9 mph - N/A   Scattered Clouds
4:51 PM 73.0 °F 60.1 °F 64% 29.83 in 10.0 mi WNW 6.9 mph - N/A   Scattered Clouds
5:51 PM 72.0 °F 60.1 °F 66% 29.82 in 10.0 mi NW 6.9 mph - N/A   Partly Cloudy
6:51 PM 71.1 °F 60.1 °F 68% 29.82 in 10.0 mi NW 6.9 mph - N/A   Scattered Clouds
7:51 PM 69.1 °F 61.0 °F 75% 29.82 in 10.0 mi West 8.1 mph - N/A   Scattered Clouds
8:51 PM 68.0 °F 61.0 °F 78% 29.83 in 10.0 mi West 5.8 mph - N/A   Scattered Clouds
9:51 PM 66.9 °F 61.0 °F 81% 29.85 in 10.0 mi WNW 4.6 mph - N/A   Scattered Clouds
10:46 PM 66.2 °F 60.8 °F 83% 29.85 in 10.0 mi WNW 4.6 mph - N/A   Mostly Cloudy
10:51 PM 66.9 °F 61.0 °F 81% 29.86 in 10.0 mi WNW 3.5 mph - N/A   Mostly Cloudy
11:51 PM 66.0 °F 60.1 °F 81% 29.84 in 9.0 mi NNW 3.5 mph - N/A   Overcast